Location: La Fredeussais
(48.1780°N, 1.3980°W)
Time: 16:55:35
(UTC+00:00)

Cosmos 1340 Rocket - Pass Details

Date: 09 May 2021
Orbit: 527 x 559 km, 81.2° (Epoch: 24 June)

Event Time Altitude Azimuth Distance (km) Brightness Sun altitude
Rises 22:37:50 0° 348° (NNW) 2,760 7.9 -21.6°
Reaches altitude 10° 22:40:02 10° 348° (NNW) 1,859 6.6 -21.7°
Maximum altitude 22:44:09 89° 259° (W) 566 2.7 -21.9°
Enters shadow 22:44:24 78° 176° (S) 577 2.7 -22.0°
